Tracking 19720 objects as of 26-Jun-2019
HD Live streaming from Space Station
objects crossing your sky now

SL-8 DEB

Track SL-8 DEB now!
10-day predictions


NORAD ID: 21161
Int'l Code: 1991-009Y
Perigee: 1,496.5 km
Apogee: 1,708.0 km
Inclination: 74.1 °
Period: 118.1 minutes
Semi major axis: 7973 km
RCS: 0.2642 m2 (medium)
Launch date: February 12, 1991
Source: Commonwealth of Independent States (former USSR) (CIS)
Launch site: PLESETSK MISSILE AND SPACE COMPLEX (PKMTR)

Note: This is SATELLITE DEBRIS
aabbcc
Your satellite tracking list
Your tracking list is empty




NASA's NSSDC Master Catalog

Two Line Element Set (TLE):
1 21161U 91009Y   19176.46506066 -.00000020 +00000-0 -46990-4 0  9993
2 21161 074.0697 187.3403 0132593 291.7968 224.6259 12.19413988259986
Source of the keplerian elements: AFSPC